Starlink 32561

operational
NORAD ID: 62026 Int'l Des: 2024-213 Owner: SPXS Country: US Constellation: starlink
LEOCIRCULAR

Starlink 32561について

説明を読み込み中...

リアルタイム位置

3D地球を読み込み中...

次回通過

高度履歴

Altitude vs Time

uPlot chart will show altitude changes over time

軌道要素

1 62026U 24213U 25259.28793786 .00029869 00000-0 10168-2 0 9993
2 62026 53.1553 258.1652 0001134 78.3088 281.8040 15.30192241 46452
Epoch: Sep 16, 2025 • Age: 42 hours

現在のステータス

高度 486.2 km
速度 7.62 km/s
衛星直下点 -34.15°S, 153.16°W
打ち上げ日 Nov 18, 2024
運用期間 0.8 years
タイプ internet

技術仕様

分類 Payload
質量 730.00 kg
乾燥質量 700.00 kg
総質量 730.00 kg
長さ 0.30 m
直径 4.10 m
スパン 29.00 m
形状 Box + pan
製造者 SPXS
バスタイプ Starlink V2M
フェーズステータス In Orbit
所有者/国 SPXS/US

大規模コンステレーション

Loading constellations...